Regional Weather Roundup
Issued by NWS

Home | Current Version | Previous Version | Graphics & Text | Print | Product List | Glossary On
Versions: 1 2 3 4 5 6 7 8 9 10 11 12 13 14 15 16 17 18 19 20 21 22 23 24 25 26 27 28 29 30 31 32 33 34 35 36 37 38 39 40 41 42 43 44 45 46 47 48 49 50
000
ASUS43 KMKX 180200
RWRWI

WISCONSIN REGIONAL WEATHER ROUNDUP
NATIONAL WEATHER SERVICE MILWAUKEE/SULLIVAN WI
900 PM CDT THU AUG 17 2017

NOTE: "FAIR" INDICATES FEW OR NO CLOUDS BELOW 12,000 FEET WITH NO
SIGNIFICANT WEATHER AND/OR OBSTRUCTIONS TO VISIBILITY.

WIZ001-002-006>008-014>016-023>028-180300-
NORTHWEST WISCONSIN

CITY           SKY/WX    TMP DP  RH WIND       PRES   REMARKS
SUPERIOR ARPT    N/A     64  60  87 NW3       29.77R
ASHLAND        CLOUDY    63  61  93 NW7       29.73R
HAYWARD        CLOUDY    63  60  90 VRB3      29.77R
SIREN          CLOUDY    64  60  86 NW8       29.80R
CUMBERLAND     CLOUDY    61  59  94 NW10G17   29.78S
RICE LAKE      CLOUDY    63  61  93 NW9G17    29.78S FOG
CHETEK         DRIZZLE   63  62  99 NW7       29.76R
LADYSMITH      CLOUDY    64  61  93 NW12G17   29.75R FOG
EAU CLAIRE     CLOUDY    65  62  90 NW12      29.75R
MENOMONIE      CLOUDY    66  62  86 NW9       29.78R
NEW RICHMOND   CLOUDY    67  61  83 NW9       29.80R
OSCEOLA        CLOUDY    68  61  79 NW6       29.83R
$$

WIZ003>005-009-010-017-018-180300-
NORTH CENTRAL WISCONSIN

CITY           SKY/WX    TMP DP  RH WIND       PRES   REMARKS
MANITOWISH WTR DRIZZLE   59  59 100 NW15G22   29.68R
ARBOR VITAE    CLOUDY    62  59  89 NW15      29.67R
WOODRUFF       CLOUDY    62  59  89 NW15      29.67R
RHINELANDER    CLOUDY    61  58  90 NW13G21   29.68R
EAGLE RIVER    CLOUDY    59  59 100 NW10      29.64R
LAND O LAKES   CLOUDY    59  58  96 NW12G18   29.66R
PHILLIPS       CLOUDY    60  60 100 NW5       29.70S FOG
TOMAHAWK         N/A     60  57  89 NW7       29.69R
MEDFORD        CLOUDY    62  59  90 NW9       29.71R
MERRILL        CLOUDY    63  61  94 NW7G16    29.68R
$$

WIZ029-030-035-036-043>047-180300-
CENTRAL WISCONSIN

CITY           SKY/WX    TMP DP  RH WIND       PRES   REMARKS
WAUSAU         CLOUDY    64  58  80 NW13G26   29.67R
MOSINEE        CLOUDY    64  61  88 NW18G24   29.69R
MARSHFIELD     CLOUDY    63  60  90 NW12      29.71R
STEVENS POINT  CLOUDY    64  62  94 W10       29.68R
WAUPACA        CLOUDY    68  64  85 W14G21    29.66R
WAUTOMA        CLOUDY    65  62  90 W14G21    29.71R
WISC RAPIDS    LGT RAIN  64  62  93 W8        29.72R
CAMP DOUGLAS   CLOUDY    66  60  81 W13G21    29.74R
$$

WIZ011>013-019>022-031-037>040-048>050-180300-
NORTHEAST WISCONSIN

CITY           SKY/WX    TMP DP  RH WIND       PRES   REMARKS
ANTIGO         CLOUDY    64  62  94 NW20G26   29.64R
SHAWANO        DRIZZLE   69  65  90 W12G18    29.61R
OCONTO         CLOUDY    69  67  94 SW8       29.55R
STURGEON BAY   CLOUDY    70  67  90 SW16G22   29.56R
GREEN BAY      CLOUDY    68  67  96 W13G22    29.61R
MANITOWOC      LGT RAIN  70  66  88 W13       29.62R
APPLETON       CLOUDY    66  64  94 W14       29.64R
CLINTONVILLE   CLOUDY    66  63  88 W13G20    29.63R
OSHKOSH        CLOUDY    67  62  84 W12G20    29.67R
$$

WIZ032>034-041-042-053>061-180300-
SOUTHWEST WISCONSIN

CITY           SKY/WX    TMP DP  RH WIND       PRES   REMARKS
LA CROSSE      CLOUDY    69  65  86 N8        29.77R
SPARTA         CLOUDY    67  61  81 W12       29.76R
VIROQUA        CLOUDY    65  64  96 NW3       29.78R
BOSCOBEL       CLOUDY    72  65  78 W8        29.77R
PRAIRIE DU CHI MOCLDY    71  62  73 W8        29.77R
PLATTEVILLE    MOCLDY    69  68  96 W8G16     29.79R
$$

WIZ056-057-062-063-064-067-068-180300-
SOUTH CENTRAL WISCONSIN

CITY           SKY/WX    TMP DP  RH WIND       PRES   REMARKS
REEDSBURG      CLOUDY    67  63  88 W12G17    29.74R
BARABOO/DELLS  CLOUDY    66  60  80 W12G20    29.74R
LONE ROCK      NOT AVBL
MINERAL POINT  CLOUDY    70  68  94 W7        29.77S
MADISON        CLOUDY    68  62  81 W7        29.74R
MIDDLETON      CLOUDY    68  64  86 W9G17     29.75R
WATERTOWN      DRIZZLE   67  67 100 W17G25    29.72R
MONROE         CLOUDY    68  63  83 W10       29.78R
JANESVILLE     CLOUDY    72  63  73 W14       29.76R
$$

WIZ051-052-058>065-066-070>072-180300-
SOUTHEAST WISCONSIN

CITY           SKY/WX    TMP DP  RH WIND       PRES   REMARKS
MILWAUKEE      MOCLDY    73  65  75 W14G28    29.70R
WAUKESHA       LGT RAIN  68  63  83 W14G21    29.73R FOG
MILWAUKEE/TIMM CLOUDY    72  63  73 W12G18    29.70R
RACINE         PTCLDY    73  64  73 W10       29.72R
KENOSHA        CLOUDY    73  63  70 W23G30    29.73R
FOND DU LAC    CLOUDY    69  60  73 W22G30    29.68R
SHEBOYGAN      CLOUDY    71  66  84 W17G29    29.65R
WEST BEND      CLOUDY    68  64  88 W16       29.68R
JUNEAU         CLOUDY    65  63  91 W12G20    29.72R
$$

LSZ147-162-180300-
LAKE SUPERIOR

STATION/POSITION TIME  TEMP    WIND        PRES    WAVE
                       AIR SEA DIR/SP/G            HT/PER
                 (UTC) (F)     (DEG/KT/KT) (MB)    (FT/S)
W MID LAKE BUOY  0050   60 60  300/ 14/ 17 1003.2R   5/ 6
DEVILS ISLAND    0100   63     320/ 16/ 17 1005.5R
SAXON HARBOR     0030   63     320/  8/ 10 1005.1S
$$

LMZ867-665-643>646-180300-
LAKE MICHIGAN

STATION/POSITION TIME  TEMP    WIND        PRES    WAVE
                       AIR SEA DIR/SP/G            HT/PER
                 (UTC) (F)     (DEG/KT/KT) (MB)    (FT/S)
S GREEN BAY BUOY 0130   72 72  220/ 21/ 23 1000.5R
N MID LAKE BUOY  0050   69 68  190/ 16/ 19 1000.4F   5/ 6
NORTHPORT PIER   0140   69     290/  2/  4 1000.0S
KEWAUNEE LAKESHO 0130   71     240/  7/ 10 1001.2R
SHEBOYGAN LAKESH 0100   74     250/ 17/ 19 1002.5R
PORT WASHINGTON  0130   73     250/  8/ 15 1005.4R
ATWATER BUOY     0009   73 70  240/ 19/ 23 1005.0R
MILWAUKEE LAKESH 0140   73     240/ 15/ 18   N/A
S MID LAKE BUOY  0050   73 71  300/ 12/ 16 1005.4R   3/ 5
KENOSHA   LAKESH 0100   76     260/ 18/ 23 1005.8
$$

TC  - TEMPERATURE IN CELSIUS
VSB - VISIBILITY IN STATUTE MILES
WCI - WIND CHILL INDEX
HX  - HEAT INDEX





USA.gov is the U.S. government's official web portal to all federal, state and local government web resources and services.